Location: Aulnoy
(48.8410°N, 3.0967°E)
Time: 00:09:00
(UTC+00:00)

Envisat - Pass Details

Date: 01 March 2024
Orbit: 762 x 764 km, 98.3° (Epoch: 12 April)

Event Time Altitude Azimuth Distance (km) Brightness Sun altitude
Rises 05:19:56 0° 359° (N) 3,243 6.3 -12.1°
Reaches altitude 10° 05:23:39 10° 331° (NNW) 2,310 5.2 -11.5°
Maximum altitude 05:25:39 12° 308° (NW) 2,144 4.9 -11.2°
Enters shadow 05:26:45 12° 294° (WNW) 2,193 4.8 -11.0°
